sat.trackr.live / text

‹ back to catalog

STARLINK-35771

NORAD 67171 · 2025-303J

PAYLOAD ACTIVE UNKNOWN

§ Identity

Operator
Country
US
Launch date
2025-12-17
Launch site
AFETR
Launch vehicle
Mass (kg)
RCS (m²)

Purposes: comms

External: N2YO · Heavens-Above · Gunter

§ Orbital elements

Epoch: 2026-05-24T13:17:29.685984Z

Period
94.27 min
Inclination
42.9998°
Eccentricity
0.0001488
Mean motion
15.27597624 rev/d
Perigee alt
482.0 km
Apogee alt
484.0 km
Semi-major
6,861.1 km
B*
6.2596e-4
RAAN
242.6199°
Arg perigee
267.1676°
Mean anomaly
92.9006°
Rev number
2,433

§ Raw data

STARLINK-357711 67171U 25303J   26144.55381581  .00017012  00000+0  62596-3 0  99992 67171  42.9998 242.6199 0001488 267.1676  92.9006 15.27597624 24330

JSON: /api/v1/satellites/67171 · /tle

For live sub-satellite position, see the globe view (requires WebGL).

§ Visibility from observer

Set your observer location to see the next 7 days of passes ≥ 10°. The values pass through the URL so the page stays shareable.

No JS? Fill the form by hand. The geolocation button needs JavaScript.